Regional Weather Roundup
Issued by NWS

Home | Current Version | Previous Version | Text Only | Print | Product List | Glossary On
Versions: 1 2 3 4 5 6 7 8 9 10 11 12 13 14 15 16 17 18 19 20 21 22 23 24 25 26 27 28 29 30 31 32 33 34 35 36 37 38 39 40 41 42 43 44 45 46 47 48 49 50
000
ASUS43 KTOP 211108
RWRKS

WEATHER ROUNDUP FOR KANSAS
NATIONAL WEATHER SERVICE GOODLAND KS
500 AM CST SUN JAN 21 2018

NOTE:  "FAIR" INDICATES FEW OR NO CLOUDS BELOW 12,000 FEET WITH NO
SIGNIFICANT WEATHER AND/OR OBSTRUCTIONS TO VISIBILITY.

KSZ001>006-013>018-027>032-041>047-211200-
NORTHWEST KANSAS

CITY           SKY/WX    TMP DP  RH WIND       PRES   REMARKS
GOODLAND       CLOUDY    30  27  88 N14       29.75S WCI  19
HAYS           LGT RAIN  36  35  96 N9        29.70R VSB 1/4
HILL CITY      CLOUDY    35  35 100 N14       29.73F FOG     WCI  26
RUSSELL        FOG       35  35 100 N12       29.67S VSB 1/4 WCI  27
$$

KSZ061>065-074>080-084>089-211200-
SOUTHWEST KANSAS

CITY           SKY/WX    TMP DP  RH WIND       PRES   REMARKS
DODGE CITY     FOG       32  31  96 N10       29.69R VSB 1/2 WCI  24
ELKHART        PTCLDY    31  28  90 N14       29.71R WCI  20
GARDEN CITY    FOG       31  31 100 N18G26    29.69F VSB 3/4 WCI  19
GREAT BEND     CLOUDY    26  25  96 NW9       29.68R FOG
LIBERAL        MOCLDY    29  25  85 NW14      29.71R WCI  18
PRATT          PTCLDY    34  30  87 S7        29.65R
$$

KSZ066>073-081>083-090>101-211200-
SOUTHEAST KANSAS

CITY           SKY/WX    TMP DP  RH WIND       PRES   REMARKS
CHANUTE        CLOUDY    55  52  89 S17       29.78F
COFFEYVILLE    CLOUDY    55  52  89 S18G25    29.79F
HUTCHINSON     CLOUDY    42  42 100 SE9       29.66S
MEDICINE LODGE   N/A     59  35  40 SE7       29.66R
NEWTON         CLOUDY    45  45 100 S15       29.68S
PARSONS        PTCLDY    55  53  93 S10G18    29.80F
WICHITA INTL   PTCLDY    50  49  96 S15       29.68F
WICHITA JABRA  CLOUDY    50  50 100 S15       29.69F
WICHITA MCCONL CLOUDY    51  49  93 S17       29.69S
WINFIELD       CLOUDY    53  52  96 S20       29.72F
$$

KSZ007>012-019>026-033>040-048>060-102>105-211200-
NORTHEAST KANSAS

CITY           SKY/WX    TMP DP  RH WIND       PRES   REMARKS
CONCORDIA      FOG       37  37 100 E7        29.71S VSB 1/4
EMPORIA        CLOUDY    53  50  89 S14G22    29.71F
LAWRENCE       CLOUDY    48  48 100 E9        29.77F
MANHATTAN      CLOUDY    44  42  93 N3        29.71F FOG
MARYSVILLE     FOG       41  41 100 CALM      29.74S VSB 1/4
OLATHE IND     CLOUDY    50  49  96 SE8       29.79S
OLATHE EXE     CLOUDY    47  47 100 SE8       29.79F
SALINA         FOG       31  30  96 CALM      29.68S VSB 1/4
TOPEKA BILLARD CLOUDY    46  46 100 E7        29.75F FOG
TOPEKA FORBES  CLOUDY    49  48  97 SE8       29.75S FOG
$$




USA.gov is the U.S. government's official web portal to all federal, state and local government web resources and services.